Location: Raleigh
(35.7720°N, 78.6390°W)
Time: 05:29:09
(UTC-04:00)

JAS-2 - Visible Passes

Search period start: 28 August 2015 00:00
Search period end: 07 September 2015 00:00
Orbit: 801 x 1321 km, 98.5° (Epoch: 27 August)

Date Brightness Start Highest point End Pass type
(mag) Time Alt. Az. Time Alt. Az. Time Alt. Az.
28 Aug 10.0 04:03:52 10° NNE 04:10:56 63° E 04:13:09 42° SSE visible
28 Aug 11.0 05:50:04 10° NNW 05:55:19 22° WNW 05:59:37 11° WSW visible
29 Aug 11.4 03:10:13 10° NE 03:15:19 22° E 03:17:15 20° ESE visible
29 Aug 9.9 04:54:02 10° N 05:00:57 54° WNW 05:03:43 33° SW visible
30 Aug 10.1 03:59:06 10° NNE 04:06:00 58° E 04:07:50 44° SSE visible
30 Aug 10.9 05:45:10 10° NNW 05:50:29 23° WNW 05:54:17 13° WSW visible
31 Aug 11.5 03:05:38 10° NE 03:10:19 20° E 03:11:56 19° ESE visible
31 Aug 9.8 04:49:12 10° N 04:56:04 58° WNW 04:58:24 37° SW visible
01 Sep 10.2 03:54:21 10° NNE 04:01:04 53° E 04:02:30 45° SE visible
01 Sep 10.8 05:40:16 10° NNW 05:45:37 24° WNW 05:48:58 15° WSW visible
02 Sep 11.6 03:01:05 10° NE 03:05:18 18° E 03:06:36 17° ESE visible
02 Sep 9.6 04:44:22 10° N 04:51:09 62° WNW 04:53:04 43° SW visible
03 Sep 10.2 03:49:36 10° NNE 03:56:06 49° E 03:57:10 45° SE visible
03 Sep 10.7 05:35:22 10° NNW 05:40:45 25° WNW 05:43:38 18° W visible
04 Sep 11.7 02:56:35 10° NE 03:00:16 16° E 03:01:15 16° E visible
04 Sep 9.5 04:39:32 10° N 04:46:15 66° WNW 04:47:44 50° SW visible
05 Sep 10.3 03:44:51 10° NNE 03:51:07 45° E 03:51:49 43° ESE visible
05 Sep 10.6 05:30:28 10° N 05:35:52 26° WNW 05:38:17 20° W visible
06 Sep 11.8 02:52:09 10° NE 02:55:14 14° E 02:55:54 14° E visible
06 Sep 9.4 04:34:42 10° N 04:41:19 70° WNW 04:42:23 58° SW visible
